Regional Weather Roundup
Issued by NWS Sterling, VA

Home | Current Version | Previous Version | Graphics & Text | Print | Product List | Glossary On
Versions: 1 2 3 4 5 6 7 8 9 10 11 12 13 14 15 16 17 18 19 20 21 22 23 24 25 26 27 28 29 30 31 32 33 34 35 36 37 38 39 40 41 42 43 44 45 46 47 48 49 50
125
ASUS41 KLWX 051410
RWRLWX

REGIONAL WEATHER ROUNDUP
NATIONAL WEATHER SERVICE BALTIMORE MD/WASHINGTON DC
900 AM EST FRI FEB 05 2016

Note: "FAIR" indicates few or no clouds below 12,000 feet
with no significant weather and/or obstructions to visibility.
 TC=TEMPERATURE CELSIUS

 * =Non NWS site. Station does not report precipitation (e.g. rain,
    snow, etc.), thunder, or fog.

DCZ001-MDZ009-015-VAZ040>042-051-053>054-051500-
WASHINGTON METRO

CITY           SKY/WX    TMP DP  RH WIND       PRES   REMARKS
WASHINGTON NAT CLOUDY    38  25  59 NW24G31   30.23R WCI  27
DULLES         CLOUDY    35  22  58 NW18G24   30.23R WCI  24
ANDREWS AFB    CLOUDY    36  27  71 NW16G23   30.19R WCI  26
FT BELVOIR     CLOUDY    37  23  56 NW14G22   30.23R WCI  29
QUANTICO       CLOUDY    39  24  55 NW14G26   30.25R
COLLEGE PARK*  CLOUDY    37  28  70 NW13G18   30.21R
LEESBURG*      CLOUDY    36  28  75 NW16G23   30.24R WCI  26
MANASSAS*      CLOUDY    36  25  64 NW17G26   30.21S WCI  25
GAITHERSBURG*  CLOUDY    34  23  64 NW14G21   30.24R WCI  24

$$

MDZ006>007-011-014-051500-
BALTIMORE METRO

CITY           SKY/WX    TMP DP  RH WIND       PRES   REMARKS
BWI AIRPORT    CLOUDY    35  32  88 NW7       30.19R
MD SCIENCE CTR   N/A     39  30  70 MISG      30.20R
MARTIN STATE   PTSUNNY   37  34  87 NW6       30.20R
ANNAPOLIS      CLOUDY    37  33  85 NW12      30.19R
FORT MEADE*    CLOUDY    32  32 100 NW3       30.23R VSB 1

$$

MDZ012-015-019>023-051500-
MARYLAND EASTERN SHORE

CITY           SKY/WX    TMP DP  RH WIND       PRES   REMARKS
OCEAN CITY     SNOW      33  32  96 N14       30.13R VSB 1/2 WCI  23
SALISBURY      LGT SNOW  33  32  96 N10       30.16R FOG     WCI  25
BAY BRIDGE AP* DRIZZLE   36  34  93 NW8       30.20R
CAMBRIDGE*     CLOUDY    34  32  93 N9G17     30.17R WCI  26
EASTON*        LGT RAIN  36  36 100 N5        30.19R

$$

MDZ017>025-051500-
SOUTHERN MARYLAND

CITY           SKY/WX    TMP DP  RH WIND       PRES   REMARKS
PATUXENT RIVER LGT RAIN  36  32  85 NW10      30.19R WCI  28
ST INIGOES     LGT RAIN  35  33  92 NW8       30.18R WCI  29
LEONARDTOWN*   CLOUDY    34  32  93 NW6       30.21R

$$

MDZ003>005-051500-
NORTH CENTRAL MARYLAND

CITY           SKY/WX    TMP DP  RH WIND       PRES   REMARKS
FREDERICK*     CLOUDY    36  30  80 NW16G25   30.24R WCI  26
HAGERSTOWN APT CLOUDY    34  23  64 NW18G28   30.21R WCI  23
WESTMINSTER*   CLOUDY    36  32  87 W7        30.18R

$$

MDZ501>502-051500-
WESTERN MARYLAND

CITY           SKY/WX    TMP DP  RH WIND       PRES   REMARKS
OAKLAND*       FOG       19  18  93 NW10G18   30.18R VSB 1   WCI   8
CUMBERLAND*    MOSUNNY   32  18  55 NW13G18   30.32R WCI  22

$$

VAZ025>031-051500-
SHENANDOAH VALLEY

CITY           SKY/WX    TMP DP  RH WIND       PRES   REMARKS
WINCHESTER*    PTSUNNY   34  21  60 NW14G21   30.25R WCI  24
FRONT ROYAL*   FAIR      32  18  55 NW13G21   30.24R WCI  22
LURAY*         FAIR      32  18  55 NW18G29   30.26R WCI  20
NEW MARKET*    CLOUDY    31  18  58 NW6       30.27R
STAUNTON*      FAIR      35  17  47 NW16      30.28R WCI  25
WAYNESBORO*    FAIR      29  13  51 N7        30.24R

$$

WVZ021-048>050-054>055-051500-
EASTERN WEST VIRGINIA PANHANDLE

CITY           SKY/WX    TMP DP  RH WIND       PRES   REMARKS
MARTINSBURG    CLOUDY    34  20  56 NW14G24   30.24R WCI  25
PETERSBURG*    PTSUNNY   31  15  51 NW7G16    30.32R

$$

VAZ036>039-050-051500-
CENTRAL FOOTHILLS

CITY           SKY/WX    TMP DP  RH WIND       PRES   REMARKS
CHARLOTTESVILL FAIR      36  16  44 N12G25    30.25R WCI  28
CULPEPER*      FAIR      35  19  52 NW10G21   30.26R WCI  27
ORANGE*        FAIR      36  23  60 NW9       30.26R WCI  29
GORDONSVILLE*  FAIR      35  20  54 NW7       30.25R
WARRENTON*     CLOUDY    37  23  59 NW23      30.24R WCI  25

$$

VAZ055>057-051500-
NORTH AND CENTRAL PIEDMONT

CITY           SKY/WX    TMP DP  RH WIND       PRES   REMARKS
FREDERICKSBRG* CLOUDY    37  23  57 NW15G21   30.23R WCI  28
STAFFORD*      CLOUDY    36  22  57 NW20G26   30.28R WCI  25

$$

NCZ024-NYZ072-PAZ021-071-VAZ022-071-051500-
OTHER REGIONAL OBSERVATIONS

CITY           SKY/WX    TMP DP  RH WIND       PRES   REMARKS
NEW YORK CITY  SNOW      31  29  92 NE10G18   30.12R VSB 1/2 WCI  22
PHILADELPHIA   CLOUDY    36  31  81 N12       30.14R WCI  28
PITTSBURGH     FLURRIES  26  17  68 NW13      30.32R WCI  15
ROANOKE        FAIR      32  16  51 NW20      30.32R WCI  20
RICHMOND       FAIR      38  26  62 N21G28    30.21R WCI  28
RALEIGH        PTSUNNY   39  25  57 N9G17     30.28R

$$

ANZ530>537-051500-
MARINE OBSERVATIONS

STATION/POSITION TIME  TEMP    WIND        PRES
                       AIR SEA DIR/SP/G
                 (UTC) (F)     (DEG/KT/KT) (MB)
THOMAS PT LIGHT  NOT AVBL
BALT KEY BRIDGE  1300   39     310/ 14/ 15 1021.3R
COVE POINT       1300   36     360/ 16/ 20 1022.1R
LEWISETTA        1300   36 44  360/ 10/ 15 1021.5R
SOLOMONS ISLAND  1300   35 41  330/  6/  9   N/A

$$





USA.gov is the U.S. government's official web portal to all federal, state and local government web resources and services.